Location: McNear
(38.2285°N, 122.6142°W)
Time: 05:07:38
(UTC+00:00)

Daily predictions for brighter satellites

Satellite Brightness Start Highest point End
(mag) Time Altitude Azimuth Time Altitude Azimuth Time Altitude Azimuth
Okean O Rocket 1.6 01:39:29 10° SSE 01:43:51 89° E 01:48:14 10° NNW
H-2A R/B 3.7 01:41:48 10° N 01:45:36 35° WNW 01:49:20 10° SW
Cosmos 1908 4.1 01:42:11 10° SSW 01:45:55 53° W 01:49:42 10° N
Cosmos 1825 Rocket 3.6 01:48:19 10° N 01:52:43 57° E 01:57:02 10° SSE
YAOGAN 1 4.1 01:50:16 10° ESE 01:52:59 16° ENE 01:55:41 10° NNE
Cosmos 2219 4.3 01:48:49 10° N 01:53:24 24° NE 01:57:57 10° ESE
SL-4 R/B 4.2 01:55:21 10° NNW 01:56:15 11° N 01:57:08 10° N
Aureole 3 3.8 01:53:28 10° SSE 01:56:24 26° E 01:59:03 10° NE
Cosmos 1892 4.4 01:56:45 10° NE 01:58:49 14° ENE 02:00:53 10° ESE
Hubble Space Telescope 3.5 01:59:27 10° SW 02:00:43 11° SSW 02:01:58 10° S
Delta 2 Rocket 4.2 01:57:56 10° W 02:03:04 66° S 02:08:24 11° ESE
CZ-2D R/B 4.0 02:00:25 10° SE 02:03:44 29° ENE 02:07:04 10° N
Cosmos 1726 Rocket 3.5 02:00:15 10° S 02:04:32 72° E 02:08:54 10° NNE
CZ-2C R/B 4.1 02:01:22 10° SE 02:06:15 29° ENE 02:11:03 10° N
Cosmos 1110 Rocket 4.5 02:01:24 10° SSW 02:06:37 65° WNW 02:11:49 10° NNE
Cosmos 1300 2.6 02:02:55 10° S 02:06:42 78° E 02:10:31 10° N
Cosmos 1302 Rocket 4.1 02:04:05 10° S 02:09:13 59° ESE 02:14:25 10° NNE
CZ-4B R/B 4.4 02:04:40 10° S 02:10:05 49° W 02:15:28 10° NNW
Cosmos 1758 Rocket 4.0 02:06:17 10° NNW 02:10:39 65° W 02:14:55 10° S
Atlas Centaur 2 4.0 02:04:01 10° SW 02:11:24 35° SSE 02:17:56 13° ESE
Timation 2 Rocket 4.3 02:07:30 10° NNW 02:13:59 54° ENE 02:20:39 10° SE
Okean-O 3.2 02:10:22 10° SE 02:14:24 35° ENE 02:18:27 10° N
Meteor 2-10 Rocket 4.4 02:09:56 10° SSE 02:14:29 28° E 02:18:54 10° NNE
Cosmos 2228 3.7 02:13:50 10° SSW 02:17:59 55° W 02:22:11 10° N
FALCON 9 DEB 4.0 02:15:01 10° WSW 02:18:05 42° NW 02:20:48 13° NNE
CZ-4B R/B 3.4 02:15:48 10° N 02:18:38 29° WNW 02:21:25 10° SW
Cosmos 1606 Rocket 4.2 02:15:14 10° SSW 02:19:30 58° W 02:23:50 10° N
ARGOS 4.5 02:18:06 17° E 02:19:43 19° ENE 02:23:25 10° NNE
BREEZE-M TANK 4.0 02:12:04 10° WNW 02:20:30 41° N 02:23:05 17° ENE
Elektron 3 4.4 02:17:51 10° NW 02:23:15 81° SW 02:26:21 10° SSE
FALCON 9 DEB 4.3 02:21:14 10° WSW 02:24:12 34° NW 02:26:38 13° NNE
NOSS 3-3 (A) 4.4 02:19:53 10° S 02:24:59 36° ESE 02:29:21 15° NE
NOSS 3-3 (C) 4.4 02:19:57 10° S 02:25:06 36° ESE 02:29:28 15° NE
Cosmos 1656 3.6 02:21:17 10° S 02:26:43 62° ESE 02:32:15 10° NNE
MOS 1 Rocket 4.0 02:24:00 10° NNE 02:28:16 33° E 02:32:44 10° SSE
SKYMED 2 3.8 02:24:32 10° N 02:28:53 74° WNW 02:33:11 10° SSW
Cosmos 2227 Rocket 2.8 02:24:46 10° N 02:29:53 34° ENE 02:33:07 19° ESE
Cosmos 44 4.1 02:26:12 10° SW 02:30:28 46° NW 02:35:00 10° NNE
CZ-4 R/B 4.3 02:28:19 10° SSE 02:32:27 75° ENE 02:36:37 10° N
CSL-04 Rocket 4.3 02:29:42 10° SE 02:34:40 35° ENE 02:39:38 10° N
Meteor 2-8 Rocket 4.4 02:29:07 10° S 02:35:12 83° E 02:41:21 10° N
Cosmos 1553 Rocket 4.0 02:29:00 10° S 02:35:19 68° E 02:41:34 10° NNE
OAO 3 Rocket 3.7 02:31:28 10° W 02:36:06 49° S 02:38:53 22° SE
Cosmos 1340 2.6 02:34:51 10° N 02:38:36 61° E 02:42:19 10° SSE
Helios 1A Rocket 2.8 02:35:46 10° SSE 02:39:54 81° ENE 02:44:01 10° N
GEOS 3 Rocket 4.4 02:38:25 26° E 02:40:27 35° NE 02:45:16 10° NNW
Cosmos 1939 Rocket 3.3 02:36:56 10° S 02:40:54 63° W 02:44:48 10° NNW
BREEZE-M DEB (TANK) 4.0 02:38:22 10° SSW 02:42:00 58° SE 02:50:32 16° ENE
Cosmos 1697 Rocket 2.9 02:39:01 10° S 02:44:18 44° ESE 02:47:49 20° NE
ASTRO E2 4.2 02:42:13 10° SW 02:45:22 23° SSE 02:46:10 21° SSE
Cosmos 2058 Rocket 3.7 02:44:47 10° SSW 02:49:11 58° W 02:53:37 10° N
H-2A R/B 2.4 02:44:08 10° SE 02:49:13 46° ENE 02:54:25 10° N
Cosmos 1992 Rocket 4.0 02:45:19 10° S 02:50:22 54° ESE 02:54:08 18° NNE
Cosmos 220 Rocket 4.0 02:46:11 10° S 02:50:24 55° ESE 02:52:04 33° NE
Cosmos 1455 3.0 02:52:32 10° S 02:54:54 35° SSE 02:54:54 35° SSE
Meteor 2-15 Rocket 4.4 02:50:34 10° S 02:56:36 62° E 03:02:39 10° NNE
CZ-4 R/B 1.5 02:57:36 10° S 03:01:31 68° WSW 03:05:23 10° NNW
Aureole 3 Rocket 4.3 02:59:22 10° SW 03:02:43 38° WNW 03:07:06 10° N
GPS 2-04 Rocket1 4.4 03:00:17 10° SSW 03:03:00 22° SSE 03:03:00 22° SSE
Cosmos 2058 3.2 02:59:58 10° N 03:03:08 48° NNE 03:03:08 48° NNE
SL-08 R/B 4.5 02:58:43 10° N 03:04:54 83° W 03:11:00 10° S
Cosmos 1745 Rocket 3.9 02:59:19 10° N 03:05:37 71° E 03:11:56 10° SSE
Cosmos 44 Rocket 4.3 03:01:35 10° S 03:04:22 29° SSE 03:04:22 29° SSE
Cosmos 1980 Rocket 3.3 03:01:12 10° SSE 03:04:11 27° SE 03:04:11 27° SE
Geosat 4.3 03:02:14 10° NNE 03:07:14 65° WNW 03:12:11 10° SW
Meteor 2-15 4.5 03:03:40 10° S 03:09:49 81° W 03:15:59 10° N
Cosmos 2297 Rocket 2.1 03:04:30 10° NNW 03:10:12 89° ENE 03:14:00 22° SSE
CSL-04 Debris 4.0 03:07:31 10° SSE 03:12:55 81° ENE 03:18:24 10° NNW
Cosmos 2360 4.1 03:10:53 10° S 03:16:33 65° ESE 03:17:41 53° ENE
Cosmos 1386 Rocket 4.4 03:16:16 10° N 03:22:42 89° W 03:29:01 10° S
OAO 2 Rocket 3.6 03:21:14 10° WSW 03:25:44 53° S 03:25:44 53° S
YAOGAN 1 3.8 03:24:38 10° S 03:28:43 41° W 03:32:49 10° NNW
SeaSat 1 3.1 03:31:00 43° N 03:31:00 43° N 03:34:30 10° NNW
Cosmos 2278 4.4 03:26:39 10° S 03:30:21 40° S 03:30:21 40° S
Cosmos 1892 4.3 03:31:05 10° NNW 03:34:37 34° W 03:36:35 21° SW
Cosmos 1709 Rocket 3.9 03:29:16 10° N 03:35:18 67° ENE 03:35:18 67° ENE
Cosmos 1315 Rocket 4.1 03:33:15 10° SSW 03:36:07 37° WSW 03:36:07 37° WSW
Cosmos 2219 4.0 03:32:17 10° NNW 03:37:48 49° WSW 03:42:03 17° S
Cosmos 1346 Rocket 4.5 03:37:15 10° NNW 03:39:31 29° NW 03:39:31 29° NW
Cosmos 2315 Rocket 4.2 03:39:45 10° S 03:49:08 31° N 03:52:11 10° N
Cosmos 968 Rocket 4.1 03:42:42 10° NNW 03:47:45 52° WSW 03:48:28 48° SW
Cosmos 2082 4.1 03:42:05 10° NNW 03:46:30 55° N 03:46:30 55° N
Cosmos 2369 4.3 03:49:43 10° SW 03:55:17 54° WNW 03:56:29 46° NNW
ARGOS 3.7 03:59:38 55° W 03:59:38 55° W 04:04:50 10° NNW
Atlas Centaur 2 3.4 03:52:33 10° WSW 04:00:32 49° S 04:00:32 49° S
Milstar 3 3.7 04:03:00 10° WSW 04:08:19 36° SSW 04:08:19 36° SSW
Cosmos 2227 Rocket 3.7 04:08:55 10° NW 04:13:50 31° WSW 04:15:02 29° SW
USA 215 4.3 04:17:13 34° N 04:17:13 34° N 04:21:19 10° NW
H-2A R/B 4.4 04:24:49 10° SW 04:28:49 21° W 04:32:53 10° NW
ATLAS 2AS CENTAUR R/B 4.2 04:25:32 10° NNW 04:29:06 27° N 04:29:06 27° N
Cosmos 2344 3.8 11:37:02 54° N 11:37:02 54° N 11:43:12 10° NNE
ADEOS Rocket 3.7 11:41:26 10° SE 11:46:35 43° ENE 11:51:48 10° N
ISS -0.2 11:52:01 11° ENE 11:52:01 11° ENE 11:52:07 10° ENE
